This demonstration page uses our WeatherBlox Daily Observations layout. Learn more.

Left ArrowRight Arrow

41.86663, -103.66717

Hourly Observations for August 12, 2018

Temp ( °F °C ) Dew Point ( °F °C ) Humidity (%) Winds ( mph kmh ) Pressure ( in mb ) Visibility ( mi km ) Precip ( " mm )
12:53 am 00:53 Clear 72 22.2 49 9.4 44 44 SSE 7 11 29.95 1014 10 16 0.00 0.00
1:53 am 01:53 Clear 73 22.8 49 9.4 43 43 S 10 17 29.93 1014 10 16 0.00 0.00
2:53 am 02:53 Clear 71 21.7 49 9.4 46 46 S 9 15 29.93 1014 10 16 0.00 0.00
3:53 am 03:53 Clear 68 20 50 10 53 53 SSE 8 13 29.93 1014 10 16 0.00 0.00
4:53 am 04:53 Clear 63 17.2 52 11.1 68 68 SE 5 7 29.95 1014 10 16 0.00 0.00
5:53 am 05:53 Clear 62 16.7 52 11.1 70 70 ESE 5 7 29.96 1014 10 16 0.00 0.00
6:53 am 06:53 Sunny 63 17.2 54 12.2 73 73 ESE 7 11 29.97 1015 9 14 0.00 0.00
7:53 am 07:53 Sunny 72 22.2 55 12.8 55 55 SSE 8 13 29.98 1015 9 14 0.00 0.00
8:53 am 08:53 Sunny 78 25.6 54 12.2 43 43 SSE 12 19 29.97 1015 10 16 0.00 0.00
9:53 am 09:53 Sunny 82 27.8 54 12.2 38 38 S 17 28 29.96 1015 10 16 0.00 0.00
10:53 am 10:53 Sunny 85 29.4 51 10.6 31 31 S 15 24 29.96 1015 10 16 0.00 0.00
11:53 am 11:53 Sunny 88 31.1 51 10.6 28 28 S 17 28 29.94 1014 10 16 0.00 0.00
12:53 pm 12:53 Sunny 89 31.7 49 9.4 25 25 SSE 21 33 29.91 1013 10 16 0.00 0.00
1:53 pm 13:53 Sunny 91 32.8 50 10 25 25 SSE 15 24 29.89 1012 8 13 0.00 0.00
2:53 pm 14:53 Hazy 92 33.3 49 9.4 23 23 SSE 14 22 29.88 1012 6 10 0.00 0.00
3:53 pm 15:53 Hazy 91 32.8 48 8.9 23 23 SSE 16 26 29.86 1011 5 8 0.00 0.00
4:53 pm 16:53 Hazy 90 32.2 50 10 25 25 SSE 17 28 29.86 1011 6 10 0.00 0.00
5:53 pm 17:53 Hazy 88 31.1 50 10 27 27 SSE 17 28 29.86 1011 6 10 0.00 0.00
6:53 pm 18:53 Hazy 85 29.4 51 10.6 31 31 SSE 14 22 29.86 1011 5 8 0.00 0.00
7:53 pm 19:53 Hazy 79 26.1 52 11.1 39 39 SE 12 19 29.86 1011 5 8 0.00 0.00
8:53 pm 20:53 Clear 70 21.1 55 12.8 59 59 ESE 9 15 29.89 1012 7 11 0.00 0.00
9:53 pm 21:53 Clear 67 19.4 56 13.3 68 68 ESE 9 15 29.91 1013 9 14 0.00 0.00
10:53 pm 22:53 Clear 64 17.8 56 13.3 75 75 ESE 8 13 29.91 1013 9 14 0.00 0.00
11:53 pm 23:53 Clear 64 17.8 55 12.8 73 73 ESE 9 15 29.91 1013 10 16 0.00 0.00

Powered by AerisWeather